Waarnemingen

Advertentie
Mijn weer
Florennes, België (6456): temperatuur & dauwpunt: 12.10.2019 03:00:00 - 18.10.2019 03:00:00 (CEST)Florennes, België (6456): windsnelheid & windstoten: 12.10.2019 03:00:00 - 18.10.2019 03:00:00 (CEST)Florennes, België (6456): windrichting: 12.10.2019 03:00:00 - 18.10.2019 03:00:00 (CEST)Florennes, België (6456): luchtdruk: 12.10.2019 03:00:00 - 18.10.2019 03:00:00 (CEST)Florennes, België (6456): zicht: 12.10.2019 03:00:00 - 18.10.2019 03:00:00 (CEST)
Datum & Tijd tt [°C] td [°C] ff [km/u] ff [kn] fx [km/u] fx [kn] dd ppp [hPa] vv [km]
18.10.2019 03:00:00 12,7 11,8 14 8 29 16 Z 1008,3 19
18.10.2019 02:00:00 12,6 11,6 18 10 - - ZZO 1008,8 20
18.10.2019 01:00:00 12,1 11,2 14 8 25 14 ZZO 1009,3 20
18.10.2019 00:00:00 11,9 11,1 14 8 25 14 ZZO 1009,8 20
17.10.2019 23:00:00 12,0 11,2 14 8 - - Z 1010,7 20
17.10.2019 22:00:00 12,0 11,4 11 6 22 12 Z 1010,5 20
17.10.2019 21:00:00 12,3 11,9 14 8 22 12 Z 1010,5 20
17.10.2019 20:00:00 12,6 12,2 11 6 - - Z 1010,3 20
17.10.2019 19:00:00 12,7 12,3 14 8 25 14 ZZW 1010,2 20
17.10.2019 18:00:00 12,6 12,2 11 6 22 12 ZZW 1010,0 6
17.10.2019 17:00:00 12,6 12,4 11 6 - - ZW 1010,1 4,0
17.10.2019 16:00:00 13,1 12,5 14 8 29 16 Z 1010,1 3,8
17.10.2019 15:00:00 13,0 12,4 14 8 29 16 Z 1010,3 6
17.10.2019 14:00:00 12,7 12,3 18 10 - - Z 1010,7 4,0
17.10.2019 13:00:00 13,0 12,2 14 8 22 12 ZZO 1011,2 12
17.10.2019 12:00:00 12,2 11,5 14 8 22 12 Z 1011,5 7
17.10.2019 11:00:00 11,6 10,8 11 6 - - Z 1012,1 20
17.10.2019 10:00:00 11,1 10,3 14 8 22 12 ZZW 1011,7 15
17.10.2019 09:00:00 11,0 10,5 14 8 25 14 Z 1011,7 10
17.10.2019 08:00:00 11,0 10,4 18 10 - - ZW 1011,0 7
17.10.2019 07:00:00 12,6 12,3 21 11 29 16 Z 1009,6 4,5
17.10.2019 06:00:00 12,6 12,3 18 10 32 18 Z 1009,3 2,4
17.10.2019 05:00:00 12,5 12,2 18 10 - - Z 1009,1 2,4
17.10.2019 04:00:00 12,2 11,9 18 10 29 16 Z 1009,1 2,7
17.10.2019 03:00:00 12,1 11,7 18 10 29 16 Z 1009,1 4,6
17.10.2019 02:00:00 12,1 11,7 18 10 - - Z 1009,0 4,5
17.10.2019 01:00:00 12,1 11,6 25 14 40 21 Z 1008,8 7
17.10.2019 00:00:00 12,1 11,6 25 14 36 19 Z 1008,8 8
16.10.2019 23:00:00 12,0 11,4 18 10 - - Z 1009,1 14
16.10.2019 22:00:00 12,1 11,3 25 14 40 21 Z 1009,0 14
16.10.2019 21:00:00 12,3 11,6 22 12 32 18 Z 1009,1 13
16.10.2019 20:00:00 12,5 11,8 25 14 - - Z 1009,2 11
16.10.2019 19:00:00 12,5 11,9 14 8 36 19 Z 1009,2 8
16.10.2019 18:00:00 12,5 12,0 18 10 40 21 Z 1009,1 3,3
16.10.2019 17:00:00 12,3 11,7 25 14 - - Z 1009,2 3,6
16.10.2019 16:00:00 12,3 11,8 25 14 36 19 Z 1009,2 5
16.10.2019 15:00:00 12,3 11,6 22 12 40 21 Z 1009,2 4,0
16.10.2019 14:00:00 12,1 11,3 25 14 - - Z 1009,2 4,5
16.10.2019 13:00:00 11,8 11,1 29 16 40 21 Z 1009,5 4,5
16.10.2019 12:00:00 11,3 10,7 25 14 36 19 Z 1009,6 6
16.10.2019 11:00:00 10,8 10,1 25 14 - - ZZO 1010,0 6
16.10.2019 10:00:00 10,3 9,6 22 12 32 18 ZZO 1010,3 6
16.10.2019 09:00:00 10,1 9,4 22 12 32 18 ZZO 1010,5 10
16.10.2019 08:00:00 9,8 9,1 22 12 - - Z 1010,7 10
16.10.2019 07:00:00 9,6 8,8 18 10 25 14 ZZO 1010,8 20
16.10.2019 06:00:00 9,6 8,8 14 8 32 18 Z 1011,0 20
16.10.2019 05:00:00 9,8 8,8 14 8 - - Z 1011,5 20
16.10.2019 04:00:00 10,0 8,8 18 10 36 19 ZZW 1011,3 20
16.10.2019 03:00:00 10,3 9,0 18 10 32 18 ZZW 1011,2 20
16.10.2019 02:00:00 10,2 8,9 18 10 - - ZZW 1011,2 20
16.10.2019 01:00:00 10,1 9,2 14 8 29 16 ZZW 1011,0 20
16.10.2019 00:00:00 10,2 9,2 21 11 29 16 Z 1010,7 10
15.10.2019 23:00:00 10,8 9,9 14 8 - - Z 1010,3 20
15.10.2019 22:00:00 11,1 10,4 14 8 22 12 Z 1010,0 20
15.10.2019 21:00:00 11,5 10,7 14 8 25 14 ZZW 1009,7 18
15.10.2019 20:00:00 11,5 11,0 14 8 - - ZZW 1008,8 18
15.10.2019 19:00:00 11,3 10,7 14 8 22 12 ZZW 1008,3 18
15.10.2019 18:00:00 11,1 10,1 11 6 29 16 ZZW 1007,7 12
15.10.2019 17:00:00 12,2 11,7 7 4 - - ZZW 1007,3 4,0
15.10.2019 16:00:00 12,5 11,7 11 6 14 8 ZZW 1007,6 15
15.10.2019 15:00:00 12,6 11,6 11 6 18 10 ZZW 1007,2 10
15.10.2019 14:00:00 12,7 11,6 11 6 - - Z 1007,3 15
15.10.2019 13:00:00 12,3 11,1 11 6 22 12 Z 1007,8 15
15.10.2019 12:00:00 12,1 11,2 15 8 22 12 ZZW 1008,0 10
15.10.2019 11:00:00 12,0 11,6 14 8 - - ZW 1007,6 5
15.10.2019 10:00:00 12,9 12,5 11 6 14 8 ZZO 1007,0 3,0
15.10.2019 09:00:00 13,0 12,5 11 6 14 8 ZZO 1007,1 10
15.10.2019 08:00:00 13,0 12,6 7 4 - - Z 1006,6 10
15.10.2019 07:00:00 13,0 12,6 13 7 22 12 Z 1006,3 10
15.10.2019 06:00:00 13,1 12,4 14 8 22 12 Z 1006,2 20
15.10.2019 05:00:00 13,5 12,1 14 8 - - ZZW 1006,0 20
15.10.2019 04:00:00 14,6 11,3 18 10 29 16 Z 1006,2 20
15.10.2019 03:00:00 15,6 10,9 22 12 32 18 Z 1007,1 20
15.10.2019 02:00:00 16,3 10,5 25 14 - - Z 1006,8 20
15.10.2019 01:00:00 16,8 12,6 18 10 25 14 Z 1006,7 20
15.10.2019 00:00:00 17,3 13,4 18 10 25 14 ZZW 1006,7 20
14.10.2019 23:00:00 18,2 13,1 14 8 - - Z 1006,2 20
14.10.2019 22:00:00 18,4 13,2 11 6 22 12 ZO 1006,2 20
14.10.2019 21:00:00 18,8 13,3 14 8 29 16 ZO 1006,3 20
14.10.2019 20:00:00 18,9 13,8 18 10 - - ZO 1006,3 20
14.10.2019 19:00:00 18,7 14,2 18 10 29 16 ZO 1006,2 20
14.10.2019 18:00:00 19,6 14,1 18 10 25 14 ZO 1006,2 20
14.10.2019 17:00:00 20,1 14,2 18 10 - - ZZO 1007,0 20
14.10.2019 16:00:00 20,7 14,1 25 14 36 19 ZZO 1007,7 20
14.10.2019 15:00:00 20,8 13,4 22 12 32 18 ZZO 1008,0 20
14.10.2019 14:00:00 20,3 13,3 18 10 - - ZZO 1008,5 20
14.10.2019 13:00:00 19,2 12,8 18 10 32 18 ZZO 1009,5 20
14.10.2019 12:00:00 17,4 13,0 14 8 25 14 ZZO 1010,6 20
14.10.2019 11:00:00 15,5 13,1 18 10 - - ZO 1011,0 20
14.10.2019 10:00:00 14,0 12,9 18 10 22 12 ZO 1011,6 12
14.10.2019 09:00:00 13,4 12,7 11 6 14 8 ONO 1011,7 6
14.10.2019 08:00:00 11,3 11,0 7 4 - - ONO 1012,2 20
14.10.2019 07:00:00 12,1 11,7 7 4 11 6 ONO 1012,7 20
14.10.2019 06:00:00 11,6 11,0 7 4 7 4 O 1013,1 20
14.10.2019 05:00:00 11,6 11,1 4 2 - - N 1013,7 20
14.10.2019 04:00:00 12,1 11,5 4 2 4 2 - 1014,1 10
14.10.2019 03:00:00 12,3 11,5 2 1 4 2 - 1014,5 10
14.10.2019 02:00:00 12,6 11,8 4 2 - - - 1014,3 10
14.10.2019 01:00:00 13,0 11,8 4 2 11 6 N 1013,7 20
14.10.2019 00:00:00 13,9 11,7 7 4 18 10 WZW 1013,6 20
13.10.2019 23:00:00 14,3 12,4 14 8 - - W 1013,1 20
13.10.2019 22:00:00 17,2 15,0 18 10 32 18 ZZW 1011,7 20
13.10.2019 21:00:00 17,2 14,8 22 12 40 21 ZZW 1011,0 20
13.10.2019 20:00:00 17,8 15,4 24 13 - - ZZW 1010,3 10
13.10.2019 19:00:00 19,9 15,0 18 10 36 19 Z 1008,8 20
13.10.2019 18:00:00 21,3 14,6 18 10 29 16 Z 1008,3 20
13.10.2019 17:00:00 21,6 14,5 18 10 - - Z 1008,1 20
13.10.2019 16:00:00 22,3 14,2 29 16 54 29 Z 1008,0 20
13.10.2019 15:00:00 22,2 14,1 32 18 50 27 Z 1007,5 20
13.10.2019 14:00:00 21,6 13,7 32 18 - - Z 1007,7 20
13.10.2019 13:00:00 21,0 14,1 25 14 40 21 Z 1008,2 20
13.10.2019 12:00:00 19,4 13,9 25 14 43 23 ZZO 1008,7 20
13.10.2019 11:00:00 17,8 13,7 25 14 - - Z 1009,2 20
13.10.2019 10:00:00 16,3 13,6 22 12 32 18 ZZO 1009,3 20
13.10.2019 09:00:00 15,6 13,8 22 12 32 18 ZZO 1009,7 20
13.10.2019 08:00:00 16,0 13,9 25 14 - - Z 1009,7 20
13.10.2019 07:00:00 15,6 14,1 18 10 32 18 ZZO 1009,3 20
13.10.2019 06:00:00 15,8 14,5 22 12 32 18 ZZO 1009,5 20
13.10.2019 05:00:00 15,5 14,5 22 12 - - Z 1009,7 20
13.10.2019 04:00:00 15,3 14,4 14 8 22 12 ZZO 1009,7 20
13.10.2019 03:00:00 15,0 14,2 14 8 22 12 ZZO 1010,3 19
13.10.2019 02:00:00 15,1 14,1 14 8 - - ZZO 1010,5 20
13.10.2019 01:00:00 15,0 14,0 14 8 18 10 ZZO 1011,1 20
13.10.2019 00:00:00 14,6 13,8 11 6 18 10 Z 1011,5 19
12.10.2019 23:00:00 15,0 13,8 7 4 - - Z 1011,5 20
12.10.2019 22:00:00 15,0 13,6 11 6 18 10 Z 1011,3 20
12.10.2019 21:00:00 14,8 13,1 11 6 25 14 Z 1011,0 20
12.10.2019 20:00:00 15,1 12,8 11 6 - - Z 1011,0 20
12.10.2019 19:00:00 15,0 12,5 11 6 25 14 Z 1010,7 20
12.10.2019 18:00:00 15,5 12,7 14 8 29 16 Z 1010,6 20
12.10.2019 17:00:00 16,1 12,8 18 10 - - Z 1011,1 20
12.10.2019 16:00:00 16,2 12,5 22 12 40 21 Z 1011,3 20
12.10.2019 15:00:00 16,2 11,8 22 12 36 19 Z 1011,6 20
12.10.2019 14:00:00 15,9 11,5 22 12 - - Z 1012,1 20
12.10.2019 13:00:00 15,8 11,5 22 12 36 19 Z 1012,6 20
12.10.2019 12:00:00 14,6 11,0 22 12 32 18 Z 1012,3 20
12.10.2019 11:00:00 13,8 11,0 18 10 - - Z 1012,2 20
12.10.2019 10:00:00 12,5 10,7 25 14 40 21 Z 1012,2 20
12.10.2019 09:00:00 11,6 10,3 22 12 36 19 Z 1011,8 20
12.10.2019 08:00:00 11,5 10,3 25 14 - - Z 1011,3 20
12.10.2019 07:00:00 11,9 10,2 22 12 29 16 ZZW 1011,0 20
12.10.2019 06:00:00 12,3 10,1 21 11 29 16 Z 1011,1 10
12.10.2019 05:00:00 12,7 9,9 18 10 - - ZZW 1011,1 20
12.10.2019 04:00:00 13,3 9,9 22 12 32 18 Z 1010,7 20
12.10.2019 03:00:00 13,5 10,1 22 12 32 18 Z 1010,8 20

tt = temperatuur
td = dauwpunt
ff = windsnelheid
fx = windstoten
dd = windrichting
ppp = luchtdruk
vv = zicht

Weerstations in de omgeving